STARLINK-35850, 66352

Orbit data source: Space-Track

STARLINK-35850, 66352 is a payload satellite owned by SpaceX/Seattle (US) in LEO that was launched on Thu, 06 Nov 2025 UTC via an FALCON 9 launch vehicle from the Air Force Western Test Range (AFWTR). Payload-class satellites include a variety of spacecraft equipped with specific instruments for various scientific and technological missions. These include communications satellites like Starlink; space stations such as the ISS; scientific satellites like the Hubble; Earth observation satellites from companies like Planet Labs, Umbra, and HawkEye 360; GPS; miniature CubeSats for education and research; and military/defense satellites.

Loading next visibility...
Identifier
66352, 2025-254E
Orbit
LEO
Country
Flag of USUS
Related business
Manufacturer
SpaceX/Seattle
Mission
Operational Commercial Communications
Bus & Motor
STARLINK V2MO, Unknown motor
Mass
575 kg wet, ~530 kg dry
Launch date (UTC)
2025-11-06 (7 months ago)
Launch vehicle
FALCON 9
Launch site
Air Force Western Test Range (AFWTR)
Object type
Payload
Rocket body
Debris
Shape & HBR
Box + 2 Pan, 17.7 m
Radar Cross Section
36.964 m², Large (>1 m²)

Expand to show TLE details & history
Last TLE update: 2 days ago

TLE from 2 days ago
0 STARLINK-35850
1 66352U 25254E   26170.14873900  .00012240  00000-0  42460-3 0  9996
2 66352  53.1582 120.8888 0001160  85.9918 274.1215 15.30206951 34518
Epoch: 2026-06-19T03:34Z
TLE epoch observation values (Epoch: 2026-06-19T03:34:11.049Z)
Latitude
-0.00005°
Longitude
159.96085°
Altitude
476.037 km
Speed
7.629 km/s
True Right ascension
08h 03m 33s
True Declination
0° 00' 00"
Sunlit
Object was in daylight at epoch
Visualization orbit readout
Latitude
Unknown
Longitude
Unknown
Altitude
Unknown
Speed
Unknown
Apparent Right ascension
Unknown
Apparent Declination
Unknown
Sunlit
N/A
Visualization observer readout
Local Sidereal Time
07:14:01
Azimuth
Unknown
Elevation
Unknown
Doppler factor
Unknown
Orbital elements
Apogee altitude
476.246 km
Perigee altitude
474.656 km
Semi-major axis
6,853.588 km
Eccentricity
0.00012
Inclination
53.1582°
RAAN
120.8888°
Arg. of periapsis
85.9918°
True anomaly
274.10824°
Mean anomaly
274.1215°
Eccentric anomaly
274.11487°
Mean motion
3.82531 °/min
Orbital period
94.11 mins
BSTAR
0.0004246
Loading maneuver chart data...
Computing Atmospheric mass density...
Loading historical data...
Loading historical data...
Loading historical data...
Loading historical data...
Loading historical data...
Loading historical data...
Loading historical data...

Documentation

Showing up to 5 results
|